Simultaneous Nadir Overpasses (SNOs) Predictions

Prediction of SNOs between AQUA and METOP-B Satellite Orbit:

Table of predicted SNOs for the next 14.0 days since TLE Epoch: 3/13/2020
Index Date (AQUA) Time (AQUA) Lat,Lon (AQUA) SZA (AQUA ) Date (METOP-B) Time (METOP-B) Lat,Lon (METOP-B) SZA (METOP-B ) Distance(km) Time Diff (sec)
1 03/15/2020 22:49:54 73.79,-168.12 75.52 03/15/2020 22:49:11 73.77,-168.11 75.51 2.12 43
2 03/15/2020 23:39:21 -73.85, -0.61 104.44 03/15/2020 23:39:51 -73.86, -0.57 104.43 1.65 30
3 03/18/2020 18:24:09 73.79,-101.68 74.39 03/18/2020 18:23:33 73.78,-101.68 74.39 0.73 36
4 03/18/2020 19:13:36 -73.85, 65.83 105.56 03/18/2020 19:14:13 -73.87, 65.86 105.55 2.44 37
5 03/21/2020 13:58:25 73.79, -35.24 73.27 03/21/2020 13:57:56 73.79, -35.26 73.28 0.49 29
6 03/21/2020 14:47:52 -73.85, 132.26 106.68 03/21/2020 14:48:36 -73.88, 132.28 106.66 2.89 44
7 03/24/2020 08:43:00 -73.08,-134.96 108.59 03/24/2020 08:41:55 -73.01,-137.95 108.53 97.47 65
8 03/24/2020 09:32:41 73.80, 31.17 72.17 03/24/2020 09:32:19 73.80, 31.16 72.17 0.55 22
9 03/24/2020 10:22:08 -73.86,-161.32 107.78 03/24/2020 10:22:59 -73.88,-161.30 107.77 2.62 51
10 03/27/2020 04:17:20 -73.36, -69.09 109.40 03/27/2020 04:16:11 -73.31, -70.88 109.37 57.35 69
11 03/27/2020 05:06:56 73.81, 97.58 71.07 03/27/2020 05:06:41 73.80, 97.58 71.06 1.32 15
12 03/27/2020 05:56:23 -73.88, -94.92 108.88 03/27/2020 05:57:21 -73.89, -94.88 108.88 1.81 58




NCC Satellite Simultaneous Nadir Overpasses (SNOs) Prediction Service
